Regional Weather Roundup
Issued by NWS Memphis, TN

Home | Current Version | Previous Version | Text Only | Print | Product List | Glossary On
Versions: 1 2 3 4 5 6 7 8 9 10 11 12 13 14 15 16 17 18 19 20 21 22 23 24 25 26 27 28 29 30 31 32 33 34 35 36 37 38 39 40 41 42 43 44 45 46 47 48 49 50
000
ASUS44 KMEG 261510
RWRMEG
MEMPHIS CWA HOURLY WEATHER ROUNDUP
NATIONAL WEATHER SERVICE MEMPHIS TN
1000 AM CDT SUN MAR 26 2017

...WEST TENNESSEE...

CITY           SKY/WX    TMP DP  RH WIND       PRES   REMARKS
MEMPHIS INTL   MOSUNNY   64  57  78 VRB7      29.99R
NWS MEMPHIS      N/A     63 N/A N/A MISG        N/A
JACKSON        CLOUDY    63  58  83 SW10      29.99R
SOMERVILLE     CLOUDY    64  57  77 S8G15     29.98R
BOLIVAR        CLOUDY    63  59  88 S9        29.99R
SAVANNAH       CLOUDY    61  59  94 S8G15     30.01R
DYERSBURG      PTSUNNY   59  54  83 W7        29.99R
PARIS          PTSUNNY   61  57  88 SW12      29.98S
HUNTINGDON     PTSUNNY   63  59  88 SW9       29.98R


...EASTERN ARKANSAS...

CITY           SKY/WX    TMP DP  RH WIND       PRES   REMARKS
JONESBORO      SUNNY     60  51  72 SW7       29.98R
WEST MEMPHIS   PTSUNNY   61  54  77 S3        29.99R
BATESVILLE     SUNNY     59  46  63 CALM      29.99S
NEWPORT        SUNNY     58  49  72 S6        29.99S
WALNUT RIDGE   CLOUDY    57  45  62 SW7       29.98S
BLYTHEVILLE    SUNNY     59  52  77 SW6       29.98S
SEARCY         SUNNY     59  50  72 VRB5      30.01R
STUTTGART      SUNNY     59  43  55 E3        30.00S
PINE BLUFF     SUNNY     60  50  69 E6        30.00R
MONTICELLO     SUNNY     63  51  65 CALM      30.00R


...NORTH MISSISSIPPI...

CITY           SKY/WX    TMP DP  RH WIND       PRES   REMARKS
TUPELO         CLOUDY    63  59  87 SE9       30.03R
OXFORD         CLOUDY    59  57  94 SW7       30.03R
BATESVILLE     CLOUDY    61  58  90 SW6       30.02R
OLIVE BRANCH   PTSUNNY  N/A N/A N/A S12       29.98S
TUNICA         SUNNY     61  54  77 CALM      30.01R
CLARKSDALE     SUNNY     63  59  88 CALM      30.01R
GREENWOOD      MOSUNNY   65  61  87 SW13      30.01R
COLUMBUS       CLOUDY    63  62  95 SW7       30.04R
STARKVILLE     CLOUDY    63  61  94 S6        30.05S
GOLDEN TRIANGL CLOUDY    63  57  82 S9        30.01R FOG


...SOUTHEAST MISSOURI...

CITY           SKY/WX    TMP DP  RH WIND       PRES   REMARKS
KENNETT        MOSUNNY   61  50  67 W8        29.97R
MALDEN         SUNNY     59  46  63 W16       29.99R
WEST PLAINS    CLOUDY    50  46  86 VRB3      29.95S
POPLAR BLUFF   CLOUDY    55  46  71 W8        29.97S
CAPE GIRARDEAU MOSUNNY   56  48  74 SW13      29.96R


...NORTHWEST ALABAMA...

CITY           SKY/WX    TMP DP  RH WIND       PRES   REMARKS
MUSCLE SHOALS  CLOUDY    62  57  83 SW7       30.05R


...MIDDLE TENNESSEE...

CITY           SKY/WX    TMP DP  RH WIND       PRES   REMARKS
NASHVILLE      CLOUDY    63  57  81 S13       30.02S
CLARKSVILLE    CLOUDY    60  55  83 S7        29.99R
COLUMBIA       CLOUDY   N/A N/A N/A SW14      30.01R


...WESTERN KENTUCKY...

CITY           SKY/WX    TMP DP  RH WIND       PRES   REMARKS
PADUCAH        CLOUDY    57  51  80 W12       29.95S
FORT CAMPBELL  CLOUDY    60  58  96 S8        29.99R


...CENTRAL ARKANSAS...

CITY           SKY/WX    TMP DP  RH WIND       PRES   REMARKS
LITTLE ROCK    SUNNY     57  50  77 CALM      30.00R


SKY/WX REPORTED AS FAIR MEANS FEW OR NO CLOUDS BELOW
12 THOUSAND FEET.




USA.gov is the U.S. government's official web portal to all federal, state and local government web resources and services.